User: anonymous
Location: Long Point Provincial Park
(42.5794°N, 80.4103°W)
Time: 08:25:24
(UTC-04:00)
Language:

Iridium 19 - Orbit

View from above orbital plane
View from above orbital plane
View from above satellite
View from above satellite

Ground track
Ground track

The orbit data is extracted from the following two-line orbital elements,

1 24965U 97056A   14204.47824116 -.00000025  00000-0 -15829-4 0  8679
2 24965 086.3939 041.6520 0002092 111.4451 248.6968 14.34216313880663
Epoch (UTC): 23 July 2014 11:28:40
Eccentricity: 0.0002092
inclination: 86.3939°
perigee height: 776 km
apogee height: 779 km
right ascension of ascending node: 41.6520°
argument of perigee: 111.4451°
revolutions per day: 14.34216313
mean anomaly at epoch: 248.6968°
orbit number at epoch: 88066

The dashed part of the orbit path shows where the satellite is in the earth's shadow,  

DLR